M I D A S
Marine Information and Data Acquisition System
Tripno 365 of the Zeeleeuw from 2002-11-26 08:20:16 to 2002-11-26 14:46:04
Back to CruiseResearch ActivitiesStationsMapUnderway DataData graphs

EquipmentUnitsComment
TimeDGPSUTC
LatitudeDGPSDM.mWGS84
LongitudeDGPSDM.mWGS84
HeadingGyrodeg 
SOGDGPSknotsSpeed over ground
COGDGPSdegCourse over ground
DepthEcho soundermeters200 kHz
Missing or incorrect values are displayed as -999
Navigation data collected by the RV Zeeleeuw from 2002-11-26 08:20:16 to 2002-11-26 14:46:04
                                                                                    Next 1000 lines
Time Latitude Longitude Heading SOG COG Depth
2002-11-26 08:20:25 51°13.705 2°55.755 56.3 1.2 36.5 13.6
2002-11-26 08:20:30 51°13.707 2°55.757 52.3 1.3 33 13.5
2002-11-26 08:20:36 51°13.708 2°55.758 49 1.1 28.8 13.3
2002-11-26 08:20:42 51°13.709 2°55.758 46 0.8 22.6 13.5
2002-11-26 08:20:46 51°13.71 2°55.758 43.2 0.6 10.8 13.7
2002-11-26 08:20:51 51°13.71 2°55.758 40.7 0.3 341.7 13.5
2002-11-26 08:20:55 51°13.71 2°55.757 38.5 0.4 279.1 13.3
2002-11-26 08:21:01 51°13.71 2°55.755 37 0.6 247.3 13.4
2002-11-26 08:21:06 51°13.709 2°55.753 35.5 0.7 240.4 13.4
2002-11-26 08:21:11 51°13.708 2°55.751 34.2 1 233.4 13.7
2002-11-26 08:21:16 51°13.706 2°55.749 32.7 1.2 228.8 -999
2002-11-26 08:21:21 51°13.705 2°55.747 30.8 1.5 222.8 -999
2002-11-26 08:21:27 51°13.703 2°55.744 29 1.6 220.2 -999
2002-11-26 08:21:31 51°13.701 2°55.743 27.7 1.5 218.4 -999
2002-11-26 08:21:37 51°13.7 2°55.74 26.3 1.4 218.3 -999
2002-11-26 08:21:43 51°13.698 2°55.738 24.8 1.2 220.3 -999
2002-11-26 08:21:47 51°13.698 2°55.737 23 1 222.9 -999
2002-11-26 08:21:52 51°13.697 2°55.736 20.8 0.8 225.1 -999
2002-11-26 08:21:57 51°13.697 2°55.735 18.2 0.6 231.2 -999
2002-11-26 08:22:01 51°13.697 2°55.735 15.2 0.4 269.4 12.3
2002-11-26 08:22:06 51°13.698 2°55.734 11.8 0.4 317.1 13.4
2002-11-26 08:22:11 51°13.699 2°55.734 7.7 0.6 337.6 13.3
2002-11-26 08:22:15 51°13.7 2°55.733 2.2 0.9 345.3 -999
2002-11-26 08:22:21 51°13.703 2°55.732 356.7 1.4 344.3 13
2002-11-26 08:22:27 51°13.705 2°55.73 351.7 1.7 342.6 -999
2002-11-26 08:22:32 51°13.708 2°55.728 347.2 2 339.5 12.1
2002-11-26 08:22:37 51°13.712 2°55.726 345 2.4 337.4 11.8
2002-11-26 08:22:41 51°13.715 2°55.724 343.8 2.8 337.1 11.2
2002-11-26 08:22:46 51°13.719 2°55.721 343.5 3.1 336.4 11.1
2002-11-26 08:22:50 51°13.723 2°55.718 343.2 3.3 336.3 10.6
2002-11-26 08:22:56 51°13.729 2°55.713 342.5 3.5 334.7 9.8
2002-11-26 08:23:01 51°13.735 2°55.709 342 4.1 334.1 10
2002-11-26 08:23:07 51°13.742 2°55.703 341.5 4.6 333.8 10.1
2002-11-26 08:23:12 51°13.749 2°55.698 341 5 333.5 10
2002-11-26 08:23:16 51°13.754 2°55.693 340.7 5.2 332.9 9.5
2002-11-26 08:23:21 51°13.761 2°55.688 340.5 5.6 333 10
2002-11-26 08:23:25 51°13.767 2°55.682 340.3 5.8 332.8 9.8
2002-11-26 08:23:31 51°13.776 2°55.675 340.7 6 332.8 10.1
2002-11-26 08:23:37 51°13.785 2°55.668 340.8 6.1 333.5 10
2002-11-26 08:23:41 51°13.792 2°55.663 341.2 6.3 334.3 9.7
2002-11-26 08:23:47 51°13.802 2°55.656 341.5 6.4 335.2 10.5
2002-11-26 08:23:51 51°13.808 2°55.652 342 6.5 335.6 10.4
2002-11-26 08:23:56 51°13.817 2°55.646 342.8 6.7 336.8 10.5
2002-11-26 08:24:01 51°13.826 2°55.64 343.3 6.7 337.4 10.5
2002-11-26 08:24:06 51°13.835 2°55.635 343.7 6.9 338.8 10.4
2002-11-26 08:24:11 51°13.844 2°55.629 343.2 6.9 338.8 10.6
2002-11-26 08:24:16 51°13.853 2°55.623 342.5 7 338.1 10.6
2002-11-26 08:24:22 51°13.864 2°55.614 342.2 7.1 336.8 10.2
2002-11-26 08:24:27 51°13.873 2°55.608 342.3 7.2 336.5 10.4
2002-11-26 08:24:31 51°13.881 2°55.602 342 7.3 336 10.6
2002-11-26 08:24:35 51°13.888 2°55.597 341.2 7.3 335.6 10.3
2002-11-26 08:24:42 51°13.901 2°55.589 340.7 7.3 335.5 -999
2002-11-26 08:24:46 51°13.908 2°55.583 340.8 7.3 336 9.9
2002-11-26 08:24:52 51°13.919 2°55.575 341.2 7.3 336 9.8
2002-11-26 08:24:56 51°13.927 2°55.57 341.5 7.3 335.9 9.9
2002-11-26 08:25:01 51°13.936 2°55.563 341.8 7.3 335.9 9.8
2002-11-26 08:25:05 51°13.944 2°55.558 342 7.4 335.9 9.8
2002-11-26 08:25:11 51°13.955 2°55.55 341.8 7.4 336.4 9.9
2002-11-26 08:25:15 51°13.962 2°55.545 342 7.5 336.6 10
2002-11-26 08:25:21 51°13.974 2°55.537 342.5 7.5 337.3 10.1
2002-11-26 08:25:26 51°13.983 2°55.53 342.3 7.5 337.3 10.2
2002-11-26 08:25:31 51°13.993 2°55.523 341.5 7.4 335.8 9.8
2002-11-26 08:25:36 51°14.002 2°55.517 340.8 5.7 335.1 10.5
2002-11-26 08:25:40 51°14.01 2°55.511 340.3 6.3 334.5 9.1
2002-11-26 08:25:46 51°14.02 2°55.502 339.7 7.2 333.4 10
2002-11-26 08:25:51 51°14.03 2°55.494 339.2 7.4 333 9.6
2002-11-26 08:25:57 51°14.041 2°55.486 339.3 7.5 333.1 9.7
2002-11-26 08:26:01 51°14.048 2°55.48 339.5 7.5 333.4 9.7
2002-11-26 08:26:07 51°14.059 2°55.471 339.8 7.5 333.9 9.5
2002-11-26 08:26:11 51°14.067 2°55.465 339.8 7.5 334 9.4
2002-11-26 08:26:16 51°14.076 2°55.458 340 7.5 333.7 9.3
2002-11-26 08:26:20 51°14.084 2°55.452 339.8 7.5 333.7 9.3
2002-11-26 08:26:25 51°14.093 2°55.444 339.2 7.6 333.2 9.9
2002-11-26 08:26:32 51°14.107 2°55.433 338.5 7.7 332.7 9.9
2002-11-26 08:26:36 51°14.115 2°55.426 338 7.8 332.5 9.2
2002-11-26 08:26:42 51°14.126 2°55.416 338 8 332.5 9.5
2002-11-26 08:26:46 51°14.134 2°55.41 338.3 8 332.4 9.4
2002-11-26 08:26:51 51°14.144 2°55.401 338.7 8.2 332.2 9.7
2002-11-26 08:26:56 51°14.155 2°55.393 338.5 8.2 332.1 10
2002-11-26 08:27:01 51°14.165 2°55.385 337.7 8.4 332.2 9.6
2002-11-26 08:27:06 51°14.175 2°55.375 336.5 8.5 331.1 9.9
2002-11-26 08:27:11 51°14.185 2°55.365 335.2 8.6 329.7 9.7
2002-11-26 08:27:16 51°14.196 2°55.355 333.7 8.7 327.7 9.7
2002-11-26 08:27:21 51°14.206 2°55.344 331.7 8.8 326.2 9.8
2002-11-26 08:27:26 51°14.216 2°55.332 329.7 8.8 324.6 9.9
2002-11-26 08:27:31 51°14.225 2°55.319 327.5 8.9 322.9 9.9
2002-11-26 08:27:36 51°14.235 2°55.306 325.2 9 319.2 9.8
2002-11-26 08:27:41 51°14.244 2°55.293 323 9.1 317.8 9.6
2002-11-26 08:27:45 51°14.251 2°55.281 320.2 9.1 316.2 9.9
2002-11-26 08:27:51 51°14.261 2°55.262 317.2 9.2 313.8 9.6
2002-11-26 08:27:57 51°14.271 2°55.243 315.8 9.3 310.2 9.7
2002-11-26 08:28:01 51°14.278 2°55.23 315.5 9.4 309.7 9.9
2002-11-26 08:28:06 51°14.286 2°55.214 315.5 9.5 309.5 9.9
2002-11-26 08:28:11 51°14.295 2°55.197 315.7 9.6 309.4 9.5
2002-11-26 08:28:15 51°14.301 2°55.184 315.7 9.7 309.5 9.7
2002-11-26 08:28:21 51°14.312 2°55.165 315 9.7 309.1 9.8
2002-11-26 08:28:26 51°14.32 2°55.148 314.3 9.8 308.6 9
2002-11-26 08:28:31 51°14.328 2°55.13 314 9.9 308.1 9.7
2002-11-26 08:28:36 51°14.337 2°55.113 314.5 10 308.4 9.2
2002-11-26 08:28:41 51°14.346 2°55.096 316.5 10.1 309.6 8.3
2002-11-26 08:28:47 51°14.358 2°55.077 319 10.2 312 10.2
2002-11-26 08:28:51 51°14.367 2°55.064 322.5 10.3 314.1 10.4
2002-11-26 08:28:56 51°14.378 2°55.05 327.2 10.4 319 10.2
2002-11-26 08:29:01 51°14.391 2°55.037 331.8 10.5 321.9 10.3
2002-11-26 08:29:06 51°14.404 2°55.025 336.3 10.8 327.7 9.8
2002-11-26 08:29:11 51°14.417 2°55.014 339.5 10.9 331.1 9.9
2002-11-26 08:29:16 51°14.431 2°55.002 339.8 11 331.8 9.7
2002-11-26 08:29:21 51°14.444 2°54.99 339.7 11.2 331.3 9.6
2002-11-26 08:29:26 51°14.458 2°54.977 339 11.4 330.6 9.7
2002-11-26 08:29:31 51°14.472 2°54.964 338.5 11.5 330.2 9.6
2002-11-26 08:29:36 51°14.486 2°54.95 338 11.8 329.4 9.5
2002-11-26 08:29:40 51°14.498 2°54.939 338 12 329.4 9.5
2002-11-26 08:29:46 51°14.516 2°54.923 338.3 12.2 329.2 9.5
2002-11-26 08:29:51 51°14.531 2°54.909 338.2 12.4 329.4 9.1
2002-11-26 08:29:56 51°14.546 2°54.894 338.5 12.6 329.4 9.3
2002-11-26 08:30:01 51°14.561 2°54.88 338.5 12.7 329.5 9.3
2002-11-26 08:30:06 51°14.576 2°54.866 338.2 12.7 329.4 9.1
2002-11-26 08:30:11 51°14.592 2°54.851 338.5 12.8 329.5 9.1
2002-11-26 08:30:17 51°14.61 2°54.833 338.5 12.9 329.4 9.1
2002-11-26 08:30:21 51°14.622 2°54.822 338.2 13 329.3 9.1
2002-11-26 08:30:26 51°14.638 2°54.807 337.8 13 329.1 9
2002-11-26 08:30:31 51°14.654 2°54.792 337.8 13.1 328.9 9
2002-11-26 08:30:36 51°14.67 2°54.776 337.8 13.1 328.8 8.7
2002-11-26 08:30:40 51°14.682 2°54.765 338.2 13.1 329.1 8.9
2002-11-26 08:30:46 51°14.7 2°54.747 338.5 13.1 329.3 9.1
2002-11-26 08:30:51 51°14.716 2°54.732 338.5 13.2 329.5 8.9
2002-11-26 08:30:56 51°14.731 2°54.717 338.5 13.2 329.6 9.2
2002-11-26 08:31:00 51°14.744 2°54.705 338.7 13.2 329.8 8.9
2002-11-26 08:31:06 51°14.763 2°54.688 338.8 13.3 329.8 8.9
2002-11-26 08:31:11 51°14.779 2°54.673 338.8 13.3 329.8 8.9
2002-11-26 08:31:16 51°14.795 2°54.658 338.7 13.2 329.8 9.1
2002-11-26 08:31:20 51°14.807 2°54.646 338.5 13.3 329.7 9
2002-11-26 08:31:26 51°14.826 2°54.629 338.5 13.3 329.7 8.8
2002-11-26 08:31:31 51°14.842 2°54.614 338.3 13.3 329.6 9.1
2002-11-26 08:31:36 51°14.858 2°54.599 338.3 13.3 329.6 9
2002-11-26 08:31:40 51°14.871 2°54.588 338.3 13.3 329.8 9
2002-11-26 08:31:46 51°14.89 2°54.57 338.7 13.3 330 8.7
2002-11-26 08:31:51 51°14.906 2°54.556 338.7 13.3 330 8.7
2002-11-26 08:31:56 51°14.922 2°54.541 338.8 13.2 330 8.6
2002-11-26 08:32:00 51°14.935 2°54.53 339 13.2 330.1 8.6
2002-11-26 08:32:06 51°14.954 2°54.512 338.8 13.2 330.2 8.2
2002-11-26 08:32:11 51°14.969 2°54.498 339 13.1 330.4 8.2
2002-11-26 08:32:16 51°14.985 2°54.483 338.8 13.1 330.4 8.4
2002-11-26 08:32:20 51°14.998 2°54.472 338.5 13.1 330.2 8.1
2002-11-26 08:32:26 51°15.017 2°54.455 338.5 13.1 330 8
2002-11-26 08:32:31 51°15.033 2°54.44 338.5 13.1 330.1 7.8
2002-11-26 08:32:36 51°15.048 2°54.426 338.5 13.1 330.1 8.1
2002-11-26 08:32:40 51°15.061 2°54.414 338.3 13 330.2 8
2002-11-26 08:32:46 51°15.08 2°54.397 338.7 13.1 330.2 8.3
2002-11-26 08:32:51 51°15.096 2°54.382 338.7 13.2 329.9 8.2
2002-11-26 08:32:56 51°15.111 2°54.368 338.7 13.2 329.8 8.2
2002-11-26 08:33:01 51°15.128 2°54.353 338.8 13.2 330.1 8.3
2002-11-26 08:33:06 51°15.143 2°54.339 339 13.2 330.2 8.4
2002-11-26 08:33:11 51°15.159 2°54.324 338.7 13.2 330.3 8.2
2002-11-26 08:33:16 51°15.175 2°54.31 338.8 13.3 330.2 8.3
2002-11-26 08:33:20 51°15.188 2°54.298 339 13.3 330.2 8.4
2002-11-26 08:33:26 51°15.207 2°54.28 338.8 13.3 330.2 8.4
2002-11-26 08:33:31 51°15.224 2°54.266 338.8 13.3 330.3 8.6
2002-11-26 08:33:36 51°15.24 2°54.251 339.2 13.4 330.3 8.6
2002-11-26 08:33:40 51°15.252 2°54.239 339.2 13.3 330.6 8.6
2002-11-26 08:33:46 51°15.272 2°54.222 339.5 13.4 330.6 8.7
2002-11-26 08:33:51 51°15.288 2°54.207 339.5 13.4 330.7 8.7
2002-11-26 08:33:56 51°15.305 2°54.192 339.2 13.4 330.5 8.9
2002-11-26 08:34:00 51°15.318 2°54.18 339.2 13.5 330.4 8.9
2002-11-26 08:34:06 51°15.337 2°54.163 339 13.5 330.3 9
2002-11-26 08:34:11 51°15.354 2°54.148 339.2 13.5 330.1 9
2002-11-26 08:34:16 51°15.37 2°54.133 339 13.5 330.1 9
2002-11-26 08:34:20 51°15.383 2°54.121 338.7 13.5 330 9.2
2002-11-26 08:34:26 51°15.402 2°54.103 338.5 13.5 330 9.2
2002-11-26 08:34:31 51°15.418 2°54.088 338.5 13.5 329.9 9.1
2002-11-26 08:34:36 51°15.435 2°54.073 338.7 13.6 330 9.2
2002-11-26 08:34:40 51°15.448 2°54.061 338.8 13.6 330.1 9.4
2002-11-26 08:34:46 51°15.467 2°54.043 338.8 13.6 329.9 9.6
2002-11-26 08:34:51 51°15.483 2°54.028 338.5 13.6 329.8 9.5
2002-11-26 08:34:56 51°15.5 2°54.012 338.2 13.5 329.4 9.7
2002-11-26 08:35:01 51°15.516 2°53.997 338.7 13.5 329.2 9.7
2002-11-26 08:35:06 51°15.532 2°53.982 338.8 13.5 329.3 9.7
2002-11-26 08:35:11 51°15.548 2°53.967 338.8 13.5 329.6 9.9
2002-11-26 08:35:16 51°15.564 2°53.952 339.2 13.5 329.6 9.9
2002-11-26 08:35:21 51°15.581 2°53.937 339.2 13.4 329.9 10.1
2002-11-26 08:35:26 51°15.597 2°53.922 339.2 13.5 329.9 10.1
2002-11-26 08:35:31 51°15.613 2°53.907 339.3 13.6 329.9 10.2
2002-11-26 08:35:36 51°15.63 2°53.892 339.3 13.5 330.1 10.3
2002-11-26 08:35:40 51°15.642 2°53.879 339.3 13.5 329.8 10.4
2002-11-26 08:35:46 51°15.662 2°53.862 339 13.5 329.6 10.5
2002-11-26 08:35:51 51°15.678 2°53.847 339 13.5 329.7 10.5
2002-11-26 08:35:56 51°15.694 2°53.832 338.8 13.5 329.8 10.6
2002-11-26 08:36:00 51°15.707 2°53.82 338.8 13.4 329.5 10.6
2002-11-26 08:36:06 51°15.726 2°53.802 338.7 13.4 329.5 10.7
2002-11-26 08:36:11 51°15.742 2°53.787 338.7 13.4 329.2 10.6
2002-11-26 08:36:16 51°15.758 2°53.772 338.7 13.4 329.3 10.6
2002-11-26 08:36:20 51°15.771 2°53.759 339.2 13.4 329.4 10.8
2002-11-26 08:36:26 51°15.79 2°53.741 339 13.4 329.1 10.9
2002-11-26 08:36:31 51°15.806 2°53.725 338.8 13.4 329 10.8
2002-11-26 08:36:36 51°15.822 2°53.71 338.7 13.4 328.8 11
2002-11-26 08:36:40 51°15.834 2°53.698 338.8 13.4 328.9 11
2002-11-26 08:36:46 51°15.854 2°53.68 338.8 13.4 329.3 11
2002-11-26 08:36:51 51°15.869 2°53.665 339.3 13.3 329.4 11.1
2002-11-26 08:36:56 51°15.886 2°53.649 339 13.4 329.5 11.2
2002-11-26 08:37:01 51°15.902 2°53.634 339 13.5 329.3 11.2
2002-11-26 08:37:06 51°15.918 2°53.619 338.8 13.6 329.3 11.3
2002-11-26 08:37:11 51°15.935 2°53.603 339 13.8 329.3 11.3
2002-11-26 08:37:16 51°15.951 2°53.587 339.2 13.8 329.3 11.4
2002-11-26 08:37:20 51°15.965 2°53.575 339 13.9 329.1 11.4
2002-11-26 08:37:26 51°15.984 2°53.556 338.8 13.9 329.3 11.4
2002-11-26 08:37:31 51°16.001 2°53.541 339 14 329.5 11.5
2002-11-26 08:37:36 51°16.018 2°53.525 339.5 14 329.6 11.4
2002-11-26 08:37:40 51°16.032 2°53.513 340.2 14 330.6 11.6
2002-11-26 08:37:46 51°16.052 2°53.496 340.7 14 331.2 11.6
2002-11-26 08:37:51 51°16.069 2°53.481 340.8 14 331.7 11.6
2002-11-26 08:37:56 51°16.086 2°53.467 341.3 14 332 11.6
2002-11-26 08:38:00 51°16.1 2°53.455 341.8 14 332.5 11.7
2002-11-26 08:38:06 51°16.121 2°53.439 342 14 333 11.8
2002-11-26 08:38:11 51°16.138 2°53.424 342 14 333.1 11.8
2002-11-26 08:38:16 51°16.155 2°53.409 341.5 14 332.7 11.8
2002-11-26 08:38:20 51°16.169 2°53.398 341.8 14 332.8 11.8
2002-11-26 08:38:26 51°16.19 2°53.38 341.3 14.1 332.3 11.7
2002-11-26 08:38:31 51°16.207 2°53.366 341.2 14.1 332.3 11.8
2002-11-26 08:38:36 51°16.224 2°53.352 341.2 14.1 332.3 11.8
2002-11-26 08:38:40 51°16.238 2°53.34 341 14 332.3 11.8
2002-11-26 08:38:46 51°16.259 2°53.322 341.2 14.1 332.2 11.9
2002-11-26 08:38:51 51°16.276 2°53.308 341 14.1 332.2 11.9
2002-11-26 08:38:56 51°16.293 2°53.293 341 14 332.1 11.9
2002-11-26 08:39:00 51°16.307 2°53.281 341 14 332 11.6
2002-11-26 08:39:06 51°16.328 2°53.264 340.7 14 331.9 12
2002-11-26 08:39:11 51°16.345 2°53.249 340.7 14.1 331.8 11.9
2002-11-26 08:39:16 51°16.362 2°53.234 340.8 14.1 331.8 11.9
2002-11-26 08:39:20 51°16.376 2°53.222 341 14.1 331.9 11.9
2002-11-26 08:39:26 51°16.396 2°53.205 341 14.1 331.8 12
2002-11-26 08:39:31 51°16.413 2°53.19 341 14 331.9 12
2002-11-26 08:39:36 51°16.431 2°53.175 340.8 14 331.9 11.8
2002-11-26 08:39:40 51°16.445 2°53.163 340.8 14.1 331.8 11.9
2002-11-26 08:39:46 51°16.465 2°53.145 340.8 14.1 331.8 11.8
2002-11-26 08:39:51 51°16.483 2°53.131 341 14.1 331.8 11.8
2002-11-26 08:39:56 51°16.5 2°53.117 341 14.1 331.9 11.8
2002-11-26 08:40:00 51°16.514 2°53.105 341.2 14.1 332.2 11.7
2002-11-26 08:40:06 51°16.534 2°53.088 341.2 14 332.2 11.3
2002-11-26 08:40:11 51°16.552 2°53.073 341 14 332.5 11.5
2002-11-26 08:40:16 51°16.569 2°53.059 341.3 14.1 332.5 11.4
2002-11-26 08:40:21 51°16.586 2°53.044 341 14.1 332.2 11.4
2002-11-26 08:40:26 51°16.603 2°53.03 341.2 14.1 332.2 11.1
2002-11-26 08:40:31 51°16.621 2°53.016 341.2 14 332.2 10.9
2002-11-26 08:40:36 51°16.638 2°53.001 341.2 14 332.6 11.1
2002-11-26 08:40:41 51°16.655 2°52.987 341 14 332.4 10.9
2002-11-26 08:40:46 51°16.672 2°52.973 341.3 14 332.5 10.9
2002-11-26 08:40:51 51°16.689 2°52.958 341.3 14 332.3 10.9
2002-11-26 08:40:56 51°16.707 2°52.944 341 14 332.3 10.8
2002-11-26 08:41:00 51°16.721 2°52.932 341 14 332.4 10.4
2002-11-26 08:41:06 51°16.741 2°52.915 341.2 14 332.5 10.3
2002-11-26 08:41:11 51°16.758 2°52.901 341.3 13.9 332.7 10.3
2002-11-26 08:41:16 51°16.775 2°52.887 341 13.9 332.6 9.7
2002-11-26 08:41:20 51°16.789 2°52.875 340.8 13.9 332.4 9.1
2002-11-26 08:41:26 51°16.809 2°52.858 341 13.8 332.3 8.8
2002-11-26 08:41:31 51°16.826 2°52.844 341.2 13.7 332.4 8.9
2002-11-26 08:41:36 51°16.843 2°52.83 341.3 13.7 332.7 9
2002-11-26 08:41:41 51°16.86 2°52.816 341 13.6 332.6 8.8
2002-11-26 08:41:46 51°16.877 2°52.802 341 13.7 332.6 8.9
2002-11-26 08:41:51 51°16.894 2°52.787 340.8 13.8 332.3 8.8
2002-11-26 08:41:56 51°16.911 2°52.773 341 13.8 332.5 8.8
2002-11-26 08:42:00 51°16.924 2°52.762 341 13.8 332.2 8.8
2002-11-26 08:42:06 51°16.945 2°52.745 340.5 13.9 332.3 9
2002-11-26 08:42:11 51°16.962 2°52.731 340.8 13.9 332.4 9.1
2002-11-26 08:42:16 51°16.979 2°52.717 341.2 14 332.7 9.2
2002-11-26 08:42:20 51°16.993 2°52.705 341.2 14 332.8 9.2
2002-11-26 08:42:26 51°17.013 2°52.688 341 14 332.7 9.6
2002-11-26 08:42:31 51°17.031 2°52.674 341.2 14.1 332.6 9.9
2002-11-26 08:42:36 51°17.049 2°52.659 341 14.1 332.7 9.7
2002-11-26 08:42:41 51°17.066 2°52.645 341.3 14.2 332.8 9.5
2002-11-26 08:42:46 51°17.083 2°52.63 341.5 14.2 332.6 9
2002-11-26 08:42:51 51°17.101 2°52.616 341.3 14.1 333 9
2002-11-26 08:42:56 51°17.118 2°52.602 341.3 14 332.9 9
2002-11-26 08:43:00 51°17.132 2°52.591 341.7 13.9 332.8 8.9
2002-11-26 08:43:06 51°17.152 2°52.574 341.3 13.9 332.7 9.1
2002-11-26 08:43:11 51°17.169 2°52.56 341 14 332.6 9.3
2002-11-26 08:43:16 51°17.187 2°52.545 341 14 332.6 9.3
2002-11-26 08:43:20 51°17.2 2°52.534 340.3 14 332.1 9.3
2002-11-26 08:43:26 51°17.221 2°52.516 340.5 14 331.9 9.3
2002-11-26 08:43:31 51°17.238 2°52.502 340.5 14 332 9.5
2002-11-26 08:43:36 51°17.256 2°52.488 340.8 14 332.4 9.4
2002-11-26 08:43:40 51°17.269 2°52.476 340.8 14 332.5 9.6
2002-11-26 08:43:46 51°17.29 2°52.458 341.2 14.1 332.6 9.6
2002-11-26 08:43:51 51°17.307 2°52.443 340.8 14.2 332.3 9.8
2002-11-26 08:43:56 51°17.325 2°52.429 341 14.2 332.5 9.7
2002-11-26 08:44:00 51°17.339 2°52.418 341.3 14.2 332.6 10
2002-11-26 08:44:06 51°17.36 2°52.401 341.3 14.2 332.8 10
2002-11-26 08:44:11 51°17.377 2°52.386 341.3 14.2 332.6 9.9
2002-11-26 08:44:16 51°17.395 2°52.372 341.2 14.2 332.6 9.9
2002-11-26 08:44:20 51°17.408 2°52.36 340.8 14.2 331.8 9.9
2002-11-26 08:44:26 51°17.429 2°52.342 339.7 14.1 331.3 9.7
2002-11-26 08:44:31 51°17.445 2°52.324 336 14 328.3 10
2002-11-26 08:44:36 51°17.461 2°52.305 333 14.1 325 9.9
2002-11-26 08:44:40 51°17.473 2°52.29 330.8 14.1 322.3 9.9
2002-11-26 08:44:46 51°17.491 2°52.266 328.8 14.2 320.7 10
2002-11-26 08:44:51 51°17.506 2°52.245 327.7 14.2 319.5 9.8
2002-11-26 08:44:56 51°17.521 2°52.225 327 14.2 319 10.1
2002-11-26 08:45:00 51°17.532 2°52.208 326.3 14.2 318.3 9.9
2002-11-26 08:45:06 51°17.55 2°52.183 326.5 14.2 318 9.9
2002-11-26 08:45:11 51°17.565 2°52.161 326.3 14.2 317.9 9.9
2002-11-26 08:45:16 51°17.58 2°52.141 326.5 14.2 318.3 10
2002-11-26 08:45:20 51°17.591 2°52.124 326.7 14.2 318.1 10.1
2002-11-26 08:45:26 51°17.609 2°52.099 326.5 14.2 318.2 9.9
2002-11-26 08:45:31 51°17.623 2°52.078 326.7 14.1 317.7 9.9
2002-11-26 08:45:36 51°17.637 2°52.056 324.3 14.1 317 10
2002-11-26 08:45:40 51°17.647 2°52.037 320.3 14 312.9 10
2002-11-26 08:45:46 51°17.662 2°52.008 316.8 14 310.9 10
2002-11-26 08:45:51 51°17.673 2°51.982 314.3 14.1 306.8 9.8
2002-11-26 08:45:56 51°17.684 2°51.956 312.3 14.1 305.2 9.8
2002-11-26 08:46:01 51°17.695 2°51.93 311 14.1 303.3 9.7
2002-11-26 08:46:06 51°17.705 2°51.903 309.8 14.1 302.2 9.6
2002-11-26 08:46:11 51°17.716 2°51.877 309.5 14.1 301.9 9.8
2002-11-26 08:46:16 51°17.726 2°51.85 309.5 14.2 302 9.8
2002-11-26 08:46:21 51°17.737 2°51.824 309.5 14.2 301.9 9.7
2002-11-26 08:46:26 51°17.747 2°51.797 309.3 14.2 301.9 9.8
2002-11-26 08:46:31 51°17.758 2°51.77 309.7 14.2 302.2 9.7
2002-11-26 08:46:36 51°17.768 2°51.744 309.8 14.2 302.2 9.4
2002-11-26 08:46:40 51°17.777 2°51.723 309.8 14.1 302.6 9.5
2002-11-26 08:46:46 51°17.789 2°51.691 310.2 14.2 302.5 9.6
2002-11-26 08:46:51 51°17.8 2°51.664 310 14.2 302.8 9.6
2002-11-26 08:46:56 51°17.811 2°51.638 309.8 14.2 302.8 9.7
2002-11-26 08:47:00 51°17.819 2°51.617 309.8 14.2 302.7 9.5
2002-11-26 08:47:06 51°17.832 2°51.585 310.2 14.2 302.6 9.6
2002-11-26 08:47:11 51°17.843 2°51.559 310.5 14.2 302.9 9.9
2002-11-26 08:47:16 51°17.854 2°51.532 310.7 14.2 302.9 9.9
2002-11-26 08:47:20 51°17.862 2°51.511 310.8 14.3 303.3 9.9
2002-11-26 08:47:26 51°17.876 2°51.479 310.8 14.3 303.4 9.9
2002-11-26 08:47:31 51°17.886 2°51.453 311 14.4 303.3 10.1
2002-11-26 08:47:36 51°17.897 2°51.426 310.7 14.4 303.2 10
2002-11-26 08:47:40 51°17.906 2°51.405 310.8 14.4 303.2 10.1
2002-11-26 08:47:46 51°17.919 2°51.374 310.7 14.3 303 10.1
2002-11-26 08:47:51 51°17.93 2°51.347 310.7 14.3 303.1 10.5
2002-11-26 08:47:56 51°17.941 2°51.321 310.8 14.4 303.2 10.5
2002-11-26 08:48:00 51°17.949 2°51.299 310.7 14.3 303.1 10.3
2002-11-26 08:48:06 51°17.963 2°51.267 310.8 14.4 303.1 10.6
2002-11-26 08:48:11 51°17.973 2°51.24 310.7 14.4 303 10.8
2002-11-26 08:48:16 51°17.984 2°51.213 310.8 14.4 303 10.9
2002-11-26 08:48:20 51°17.993 2°51.193 311.2 14.4 303.3 11
2002-11-26 08:48:26 51°18.006 2°51.163 311.5 14.4 303.6 10.9
2002-11-26 08:48:31 51°18.017 2°51.136 311.2 14.4 303.4 11.5
2002-11-26 08:48:36 51°18.028 2°51.11 311.3 14.4 303.6 11.4
2002-11-26 08:48:40 51°18.036 2°51.088 311.2 14.5 303.3 11.7
2002-11-26 08:48:46 51°18.05 2°51.056 311.3 14.5 303.5 11.6
2002-11-26 08:48:51 51°18.061 2°51.031 311.5 14.5 303.6 11.8
2002-11-26 08:48:56 51°18.072 2°51.006 311.7 14.4 303.7 11.9
2002-11-26 08:49:00 51°18.08 2°50.985 311.7 14.3 303.5 11.9
2002-11-26 08:49:06 51°18.094 2°50.954 311.3 14.3 303.5 12.2
2002-11-26 08:49:11 51°18.105 2°50.927 311.5 14.3 303.4 12.2
2002-11-26 08:49:16 51°18.116 2°50.9 311.3 14.3 303.5 12.3
2002-11-26 08:49:20 51°18.125 2°50.878 311.2 14.3 303.5 12.3
2002-11-26 08:49:26 51°18.138 2°50.846 311.2 14.3 303.3 12.1
2002-11-26 08:49:31 51°18.149 2°50.82 311.3 14.3 303.5 12.7
2002-11-26 08:49:36 51°18.159 2°50.793 311.5 14.3 303.3 12.6
2002-11-26 08:49:41 51°18.17 2°50.767 311.3 14.3 303.5 12.7
2002-11-26 08:49:46 51°18.181 2°50.741 311.5 14.3 303.5 12.3
2002-11-26 08:49:51 51°18.192 2°50.715 311.8 14.3 303.7 12.8
2002-11-26 08:49:56 51°18.203 2°50.688 311.7 14.3 303.5 12.8
2002-11-26 08:50:00 51°18.212 2°50.667 311.7 14.3 303.7 12.9
2002-11-26 08:50:06 51°18.225 2°50.635 311.7 14.3 303.8 12.9
2002-11-26 08:50:11 51°18.237 2°50.609 311.8 14.3 303.8 13
2002-11-26 08:50:16 51°18.248 2°50.582 311.7 14.3 303.6 13
2002-11-26 08:50:20 51°18.256 2°50.56 311.5 14.3 303.8 13.1
2002-11-26 08:50:26 51°18.27 2°50.528 311.5 14.3 303.7 13.3
2002-11-26 08:50:31 51°18.281 2°50.502 311.7 14.3 303.9 13.3
2002-11-26 08:50:36 51°18.292 2°50.476 311.7 14.3 303.9 13.6
2002-11-26 08:50:40 51°18.301 2°50.455 311.8 14.3 304.2 13.6
2002-11-26 08:50:46 51°18.314 2°50.424 311.7 14.3 304 13.5
2002-11-26 08:50:51 51°18.325 2°50.398 311.8 14.3 304.2 13.6
2002-11-26 08:50:56 51°18.336 2°50.371 311.7 14.3 304 13.8
2002-11-26 08:51:00 51°18.345 2°50.35 312 14.2 304 13.6
2002-11-26 08:51:06 51°18.359 2°50.318 311.7 14.3 304 13.4
2002-11-26 08:51:11 51°18.37 2°50.292 311.8 14.3 304.1 13.8
2002-11-26 08:51:16 51°18.381 2°50.266 311.8 14.3 304.1 13.7
2002-11-26 08:51:20 51°18.39 2°50.245 311.7 14.3 304 13.6
2002-11-26 08:51:26 51°18.403 2°50.214 311.7 14.3 304.2 13.7
2002-11-26 08:51:31 51°18.414 2°50.187 311.7 14.2 304.1 13.8
2002-11-26 08:51:36 51°18.425 2°50.161 311.7 14.2 304.2 13.4
2002-11-26 08:51:40 51°18.434 2°50.14 311.7 14.3 304 13.8
2002-11-26 08:51:46 51°18.447 2°50.11 311.7 14.2 304.1 13.5
2002-11-26 08:51:51 51°18.459 2°50.084 311.8 14.2 304.2 13.7
2002-11-26 08:51:56 51°18.47 2°50.058 312.2 14.2 304.3 13.5
2002-11-26 08:52:01 51°18.481 2°50.031 312.2 14.3 304.4 13.4
2002-11-26 08:52:06 51°18.492 2°50.005 312 14.3 304.1 13.5
2002-11-26 08:52:11 51°18.504 2°49.979 312 14.3 304.2 13.3
2002-11-26 08:52:16 51°18.515 2°49.953 311.8 14.3 304.3 13
2002-11-26 08:52:20 51°18.524 2°49.932 312 14.3 304.3 12.9
2002-11-26 08:52:26 51°18.537 2°49.9 311.7 14.3 304.1 12.3
2002-11-26 08:52:31 51°18.548 2°49.874 311.3 14.3 304 12.5
2002-11-26 08:52:36 51°18.56 2°49.848 311.8 14.3 304.2 12.6
2002-11-26 08:52:41 51°18.571 2°49.822 311.8 14.3 304.3 12.3
2002-11-26 08:52:46 51°18.582 2°49.796 311.7 14.3 304.3 11.9
2002-11-26 08:52:51 51°18.593 2°49.771 311.8 14.3 304 12
2002-11-26 08:52:56 51°18.604 2°49.745 312 14.3 304.3 11.9
2002-11-26 08:53:00 51°18.613 2°49.723 311.7 14.2 304.2 11.6
2002-11-26 08:53:06 51°18.626 2°49.692 312 14.2 304.1 11.7
2002-11-26 08:53:11 51°18.638 2°49.665 311.7 14.3 304.3 11.6
2002-11-26 08:53:16 51°18.649 2°49.639 311.7 14.4 304.8 11.3
2002-11-26 08:53:20 51°18.658 2°49.619 312 14.3 304.7 10.5
2002-11-26 08:53:26 51°18.671 2°49.587 311.7 14.3 304.2 10.4
2002-11-26 08:53:31 51°18.682 2°49.561 312 14.2 304.4 10.3
2002-11-26 08:53:36 51°18.693 2°49.534 311.8 14.2 304 10
2002-11-26 08:53:41 51°18.705 2°49.509 312 14.2 304.8 10.4
2002-11-26 08:53:46 51°18.715 2°49.483 311.7 14.3 304 10
2002-11-26 08:53:51 51°18.726 2°49.457 311.8 14.2 304.3 9.8
2002-11-26 08:53:56 51°18.738 2°49.431 312.2 14.2 304.1 9.8
2002-11-26 08:54:00 51°18.747 2°49.41 312 14.2 304.3 9.7
2002-11-26 08:54:06 51°18.76 2°49.378 312.3 14.3 304.6 9.8
2002-11-26 08:54:11 51°18.771 2°49.352 312.5 14.3 304.8 10
2002-11-26 08:54:16 51°18.783 2°49.326 312.7 14.4 304.8 10.3
2002-11-26 08:54:20 51°18.792 2°49.305 312.2 14.4 304.8 10.6
2002-11-26 08:54:26 51°18.806 2°49.273 312.2 14.5 304.6 10.6
2002-11-26 08:54:31 51°18.817 2°49.246 312.2 14.6 304.2 10.3
2002-11-26 08:54:36 51°18.828 2°49.22 311.8 14.6 304.3 10.5
2002-11-26 08:54:40 51°18.837 2°49.199 311.8 14.6 304.4 10.5
2002-11-26 08:54:46 51°18.851 2°49.167 312.2 14.6 304.4 10.6
2002-11-26 08:54:51 51°18.862 2°49.141 312.2 14.5 304.5 10.4
2002-11-26 08:54:56 51°18.874 2°49.114 311.7 14.5 304.3 10.8
2002-11-26 08:55:00 51°18.883 2°49.093 311.8 14.5 304.4 11
2002-11-26 08:55:06 51°18.896 2°49.061 311.7 14.5 304.3 11
2002-11-26 08:55:11 51°18.908 2°49.035 311.8 14.5 304.5 11
2002-11-26 08:55:16 51°18.919 2°49.008 312 14.5 304.5 11.2
2002-11-26 08:55:20 51°18.928 2°48.987 312 14.6 304.2 11.3
2002-11-26 08:55:26 51°18.942 2°48.954 311.7 14.6 304.3 11.7
2002-11-26 08:55:31 51°18.954 2°48.928 311.8 14.6 304.1 12
2002-11-26 08:55:36 51°18.965 2°48.901 311.5 14.6 304.1 12.3
2002-11-26 08:55:40 51°18.974 2°48.88 311.8 14.7 304.2 12.5
2002-11-26 08:55:46 51°18.988 2°48.848 312.2 14.7 304.2 13.1
2002-11-26 08:55:51 51°18.999 2°48.821 312.3 14.6 304.4 13.3
2002-11-26 08:55:56 51°19.011 2°48.795 312.2 14.6 304.5 13.6
2002-11-26 08:56:00 51°19.02 2°48.773 311.7 14.6 304.3 13.5
2002-11-26 08:56:06 51°19.034 2°48.741 311.8 14.6 304.4 13.6
2002-11-26 08:56:11 51°19.045 2°48.714 311.8 14.6 304.3 14
2002-11-26 08:56:16 51°19.056 2°48.687 311.8 14.6 304.2 14
2002-11-26 08:56:20 51°19.065 2°48.666 312 14.6 304.1 14.2
2002-11-26 08:56:26 51°19.079 2°48.635 311.7 14.5 304.2 14.3
2002-11-26 08:56:31 51°19.09 2°48.608 312.3 14.5 304.3 14.5
2002-11-26 08:56:36 51°19.101 2°48.582 311.8 14.4 304.2 14.7
2002-11-26 08:56:40 51°19.11 2°48.561 311.7 14.4 304.1 15
2002-11-26 08:56:46 51°19.123 2°48.529 311.8 14.4 303.9 15.3
2002-11-26 08:56:51 51°19.135 2°48.502 311.8 14.5 303.9 15.4
2002-11-26 08:56:56 51°19.146 2°48.475 311.5 14.5 303.7 15.7
2002-11-26 08:57:00 51°19.155 2°48.454 311.8 14.4 303.8 16.1
2002-11-26 08:57:06 51°19.168 2°48.423 312.2 14.4 303.8 16.2
2002-11-26 08:57:11 51°19.179 2°48.396 311.8 14.4 304.1 16.4
2002-11-26 08:57:16 51°19.19 2°48.37 311.8 14.3 304 16.6
2002-11-26 08:57:20 51°19.199 2°48.349 311.5 14.4 304 16.8
2002-11-26 08:57:26 51°19.212 2°48.317 311.7 14.3 303.5 16.9
2002-11-26 08:57:31 51°19.223 2°48.291 312 14.3 303.9 17.2
2002-11-26 08:57:36 51°19.234 2°48.265 312.2 14.4 304 17.4
2002-11-26 08:57:40 51°19.244 2°48.244 312.3 14.4 304.3 17.7
2002-11-26 08:57:46 51°19.257 2°48.213 312.2 14.4 304.2 18
2002-11-26 08:57:51 51°19.268 2°48.186 311.7 14.4 304.1 18.2
2002-11-26 08:57:56 51°19.279 2°48.159 312 14.4 304 18.3
2002-11-26 08:58:00 51°19.288 2°48.138 311.7 14.4 303.7 18.4
2002-11-26 08:58:06 51°19.301 2°48.107 311.7 14.4 303.7 18.4
2002-11-26 08:58:11 51°19.312 2°48.08 311.8 14.4 303.7 18.7
2002-11-26 08:58:16 51°19.323 2°48.054 312 14.4 303.8 18.9
2002-11-26 08:58:20 51°19.332 2°48.032 312.2 14.4 303.8 19
2002-11-26 08:58:26 51°19.346 2°48.001 312.2 14.4 303.9 19.1
2002-11-26 08:58:31 51°19.357 2°47.975 312.2 14.4 304 19.5
2002-11-26 08:58:36 51°19.368 2°47.948 312 14.4 303.7 19.8
2002-11-26 08:58:40 51°19.377 2°47.927 311.8 14.3 303.8 19.6
2002-11-26 08:58:46 51°19.39 2°47.895 311.7 14.3 303.6 19.9
2002-11-26 08:58:51 51°19.401 2°47.869 312.3 14.4 303.9 20.3
2002-11-26 08:58:56 51°19.412 2°47.842 312.2 14.4 303.9 20.4
2002-11-26 08:59:00 51°19.421 2°47.822 312.2 14.4 304.1 20.5
2002-11-26 08:59:06 51°19.435 2°47.79 312.5 14.4 304.3 20.4
2002-11-26 08:59:11 51°19.446 2°47.764 312.2 14.4 304.1 20.7
2002-11-26 08:59:16 51°19.457 2°47.738 312.2 14.4 304.3 20.9
2002-11-26 08:59:20 51°19.466 2°47.717 312 14.3 304.1 21.1
2002-11-26 08:59:26 51°19.479 2°47.685 312 14.4 304 20.9
2002-11-26 08:59:31 51°19.49 2°47.659 312.2 14.3 304.1 21.1
2002-11-26 08:59:36 51°19.502 2°47.633 312.2 14.3 304.3 21.1
2002-11-26 08:59:40 51°19.511 2°47.612 312.2 14.3 304.4 21.3
2002-11-26 08:59:46 51°19.524 2°47.581 312.2 14.3 304.7 21.3
2002-11-26 08:59:51 51°19.536 2°47.554 312 14.3 304.4 21.3
2002-11-26 08:59:56 51°19.547 2°47.528 312.3 14.3 304.5 21.3
2002-11-26 09:00:00 51°19.556 2°47.507 312.5 14.3 304.6 21.3
2002-11-26 09:00:06 51°19.569 2°47.476 312.5 14.3 304.8 21.3
2002-11-26 09:00:11 51°19.581 2°47.45 312.2 14.3 304.8 21.1
2002-11-26 09:00:16 51°19.592 2°47.424 311.8 14.3 304.9 21.2
2002-11-26 09:00:20 51°19.601 2°47.403 312 14.3 304.7 20.9
2002-11-26 09:00:26 51°19.615 2°47.372 312.2 14.3 304.9 21.1
2002-11-26 09:00:31 51°19.626 2°47.346 312 14.3 304.6 21.2
2002-11-26 09:00:36 51°19.637 2°47.32 312.2 14.3 304.7 21.2
2002-11-26 09:00:40 51°19.646 2°47.299 311.8 14.3 304.4 21.2
2002-11-26 09:00:46 51°19.66 2°47.268 311.8 14.2 304.6 21.1
2002-11-26 09:00:51 51°19.671 2°47.241 311.5 14.3 304.3 20.9
2002-11-26 09:00:56 51°19.683 2°47.215 311.8 14.3 304.6 21
2002-11-26 09:01:01 51°19.693 2°47.189 311.8 14.3 304 21.1
2002-11-26 09:01:06 51°19.704 2°47.163 311.5 14.3 303.8 21.1
2002-11-26 09:01:11 51°19.714 2°47.135 307.7 14.3 301.2 20.9
2002-11-26 09:01:16 51°19.722 2°47.106 304.5 14.2 298.5 20.7
2002-11-26 09:01:20 51°19.729 2°47.084 302.2 14.3 295.7 20.7
2002-11-26 09:01:26 51°19.739 2°47.049 301 14.3 294.2 20.6
2002-11-26 09:01:31 51°19.746 2°47.019 299.7 14.3 292.8 20.5
2002-11-26 09:01:36 51°19.753 2°46.989 298.8 14.3 292 20.1
2002-11-26 09:01:40 51°19.759 2°46.966 298.3 14.4 291.6 20.2
2002-11-26 09:01:46 51°19.767 2°46.93 297.8 14.3 290.8 19.9
2002-11-26 09:01:51 51°19.774 2°46.901 297.5 14.3 290.8 19.9
2002-11-26 09:01:56 51°19.781 2°46.871 297.5 14.3 290.6 19.8
2002-11-26 09:02:00 51°19.787 2°46.847 297.8 14.3 291 19.6
2002-11-26 09:02:06 51°19.795 2°46.811 297.2 14.3 290.6 19.3
2002-11-26 09:02:11 51°19.803 2°46.782 298 14.3 291 19
2002-11-26 09:02:16 51°19.81 2°46.752 298.3 14.3 291.3 18.6
2002-11-26 09:02:20 51°19.815 2°46.728 298 14.3 290.9 18
2002-11-26 09:02:26 51°19.824 2°46.693 298.2 14.3 291 17.3
2002-11-26 09:02:31 51°19.831 2°46.663 297.7 14.3 290.8 16.9
2002-11-26 09:02:36 51°19.839 2°46.634 297.8 14.3 291 18
2002-11-26 09:02:41 51°19.846 2°46.604 297.8 14.3 291 17.6
2002-11-26 09:02:46 51°19.853 2°46.574 298 14.4 291.4 17.3
2002-11-26 09:02:51 51°19.86 2°46.544 297.5 14.4 290.9 16.5
2002-11-26 09:02:56 51°19.867 2°46.515 297.2 14.4 290.7 17.1
2002-11-26 09:03:01 51°19.873 2°46.485 295.5 14.3 289.2 15.1
2002-11-26 09:03:06 51°19.88 2°46.455 295.5 14.4 288.9 15.3
2002-11-26 09:03:11 51°19.886 2°46.424 294.8 14.3 288.5 14.7
2002-11-26 09:03:16 51°19.892 2°46.394 294.7 14.2 288.3 15.7
2002-11-26 09:03:20 51°19.897 2°46.37 294.8 14.3 288.3 15.6
2002-11-26 09:03:26 51°19.905 2°46.333 294.5 14.4 288.2 14.4
2002-11-26 09:03:31 51°19.91 2°46.302 294 14.4 287.5 14.3
2002-11-26 09:03:36 51°19.917 2°46.272 294.5 14.4 287.8 15
2002-11-26 09:03:40 51°19.922 2°46.248 294.2 14.4 287.8 14.4
2002-11-26 09:03:46 51°19.93 2°46.212 294.7 14.4 288.1 13.1
2002-11-26 09:03:51 51°19.935 2°46.181 294.2 14.4 288.2 11
2002-11-26 09:03:56 51°19.942 2°46.151 294.5 14.4 288 12.9
2002-11-26 09:04:01 51°19.948 2°46.121 294.8 14.4 288.2 11.3
2002-11-26 09:04:06 51°19.954 2°46.091 294.2 14.4 288.1 13.2
2002-11-26 09:04:11 51°19.96 2°46.06 293.8 14.4 287.7 13.7
2002-11-26 09:04:16 51°19.967 2°46.03 294.8 14.5 288.3 12.4
2002-11-26 09:04:20 51°19.971 2°46.005 294.3 14.6 287.9 13.4
2002-11-26 09:04:26 51°19.98 2°45.968 294.5 14.6 288.3 13.8
2002-11-26 09:04:31 51°19.986 2°45.938 295 14.6 288.3 10.7
2002-11-26 09:04:36 51°19.992 2°45.907 294.3 14.5 288 13.1
2002-11-26 09:04:40 51°19.997 2°45.882 294.3 14.5 288 14.6
2002-11-26 09:04:46 51°20.005 2°45.846 294.3 14.5 288.1 14.5
2002-11-26 09:04:51 51°20.011 2°45.815 294.3 14.6 288.1 14.6
2002-11-26 09:04:56 51°20.018 2°45.784 294.3 14.6 288.3 15.2
2002-11-26 09:05:00 51°20.023 2°45.759 294.2 14.6 288.2 15.7
2002-11-26 09:05:06 51°20.03 2°45.723 294.7 14.6 288.2 11.7
2002-11-26 09:05:11 51°20.036 2°45.692 294.7 14.6 288.1 13
2002-11-26 09:05:16 51°20.043 2°45.662 294.3 14.5 288.2 15.1
2002-11-26 09:05:20 51°20.048 2°45.637 294 14.5 287.9 15.6
2002-11-26 09:05:26 51°20.055 2°45.6 294.2 14.5 288.1 16.1
2002-11-26 09:05:31 51°20.061 2°45.57 295 14.7 288.6 17.5
2002-11-26 09:05:36 51°20.068 2°45.539 294.8 14.7 288.6 18.6
2002-11-26 09:05:40 51°20.073 2°45.514 295 14.6 288.6 20
2002-11-26 09:05:46 51°20.081 2°45.477 294.8 14.6 288.3 20.6
2002-11-26 09:05:51 51°20.087 2°45.446 294.3 14.6 288.2 20.9
2002-11-26 09:05:56 51°20.094 2°45.416 294.8 14.6 288.3 21.3
2002-11-26 09:06:00 51°20.098 2°45.391 294.7 14.6 288.3 21.6
2002-11-26 09:06:06 51°20.106 2°45.354 294.5 14.5 288 21.9
2002-11-26 09:06:11 51°20.112 2°45.324 294.5 14.5 288 22
2002-11-26 09:06:16 51°20.118 2°45.294 294.8 14.5 288.2 22.2
2002-11-26 09:06:20 51°20.123 2°45.269 294.8 14.5 288.3 22.3
2002-11-26 09:06:26 51°20.13 2°45.233 294.5 14.5 288.1 22.6
2002-11-26 09:06:31 51°20.137 2°45.202 294.5 14.5 288.1 22.6
2002-11-26 09:06:36 51°20.143 2°45.172 294.5 14.4 287.9 22.3
2002-11-26 09:06:41 51°20.149 2°45.141 294.7 14.4 288.2 22.6
2002-11-26 09:06:46 51°20.155 2°45.111 294.3 14.5 287.9 22.6
2002-11-26 09:06:51 51°20.161 2°45.08 294 14.4 287.4 22.6
2002-11-26 09:06:56 51°20.167 2°45.05 294.2 14.4 287.5 22.7
2002-11-26 09:07:00 51°20.172 2°45.025 293.8 14.4 287.2 23.2
2002-11-26 09:07:06 51°20.179 2°44.989 293.8 14.4 287.3 23.3
2002-11-26 09:07:11 51°20.184 2°44.958 293.8 14.4 287 23.5
2002-11-26 09:07:16 51°20.19 2°44.928 294 14.4 287.4 23.5
2002-11-26 09:07:20 51°20.195 2°44.904 293.8 14.4 287.3 23.7
2002-11-26 09:07:26 51°20.202 2°44.867 294 14.4 287.5 23.6
2002-11-26 09:07:31 51°20.209 2°44.837 294 14.4 287.8 23.7
2002-11-26 09:07:36 51°20.215 2°44.807 294.3 14.4 288 24
2002-11-26 09:07:40 51°20.22 2°44.782 294.3 14.4 288.2 23.9
2002-11-26 09:07:46 51°20.227 2°44.747 294.7 14.4 288.4 23.9
2002-11-26 09:07:51 51°20.233 2°44.716 293.5 14.3 287.7 24.2
2002-11-26 09:07:56 51°20.24 2°44.686 294.3 14.3 288.6 24.3
2002-11-26 09:08:01 51°20.246 2°44.656 294.2 14.3 288 24.2
2002-11-26 09:08:06 51°20.252 2°44.626 293.8 14.3 288.5 24.3
2002-11-26 09:08:11 51°20.258 2°44.596 294.3 14.3 288.5 24.6
2002-11-26 09:08:16 51°20.264 2°44.566 294 14.3 288.8 24.7
2002-11-26 09:08:20 51°20.27 2°44.542 294.2 14.2 288.5 24.7
2002-11-26 09:08:26 51°20.277 2°44.506 293.8 14.2 288.7 25.2
2002-11-26 09:08:31 51°20.283 2°44.476 294 14.3 288.5 25.4
2002-11-26 09:08:36 51°20.289 2°44.446 293.5 14.3 288 25.7
2002-11-26 09:08:40 51°20.294 2°44.422 294 14.3 288.2 25.8
2002-11-26 09:08:46 51°20.301 2°44.385 292.7 14.2 287.8 25.8
2002-11-26 09:08:51 51°20.306 2°44.355 291 14.2 285.7 25.9
2002-11-26 09:08:56 51°20.311 2°44.324 290.7 14.3 285.2 26.1
2002-11-26 09:09:00 51°20.315 2°44.3 289.5 14.3 283.9 26.2
2002-11-26 09:09:06 51°20.32 2°44.263 289.2 14.3 283.7 26.4
2002-11-26 09:09:11 51°20.325 2°44.231 288.5 14.3 282.9 26.6
2002-11-26 09:09:16 51°20.33 2°44.2 288.8 14.3 282.9 26.7
2002-11-26 09:09:20 51°20.333 2°44.175 289 14.4 283 26.5
2002-11-26 09:09:26 51°20.338 2°44.139 289 14.3 283.5 26.7
2002-11-26 09:09:31 51°20.342 2°44.108 288.5 14.3 282.7 26.6
2002-11-26 09:09:36 51°20.347 2°44.077 288.3 14.3 283.1 26.7
2002-11-26 09:09:41 51°20.351 2°44.046 288.2 14.3 282.1 26.6
2002-11-26 09:09:46 51°20.356 2°44.015 289 14.3 283.4 26.6
2002-11-26 09:09:51 51°20.36 2°43.984 288.5 14.3 282.5 26.3
2002-11-26 09:09:56 51°20.364 2°43.953 288.7 14.3 283.2 26.5
2002-11-26 09:10:00 51°20.368 2°43.928 288.7 14.4 282.5 26.5
2002-11-26 09:10:06 51°20.373 2°43.891 288.7 14.4 282.7 26.6
2002-11-26 09:10:11 51°20.377 2°43.86 288.2 14.4 282.2 26.3
2002-11-26 09:10:16 51°20.382 2°43.829 289 14.4 283.1 26.3
2002-11-26 09:10:21 51°20.386 2°43.798 288.3 14.4 282.7 26.6
2002-11-26 09:10:26 51°20.391 2°43.767 289 14.4 282.9 26.1
2002-11-26 09:10:31 51°20.394 2°43.736 288.7 14.4 282.4 26.4
2002-11-26 09:10:36 51°20.399 2°43.705 289 14.4 282.6 26.7
2002-11-26 09:10:41 51°20.403 2°43.674 288.7 14.4 282.6 26.7
2002-11-26 09:10:46 51°20.408 2°43.643 288.5 14.4 282.7 26.1
2002-11-26 09:10:51 51°20.412 2°43.613 289.2 14.4 282.8 26.3
2002-11-26 09:10:56 51°20.416 2°43.582 288.7 14.4 282.7 26.3
2002-11-26 09:11:00 51°20.42 2°43.557 288.7 14.4 282.8 26.2
2002-11-26 09:11:06 51°20.425 2°43.52 288.8 14.4 283 26.1
2002-11-26 09:11:11 51°20.429 2°43.489 289.2 14.4 283 26.2
2002-11-26 09:11:16 51°20.434 2°43.458 288.3 14.4 283 26.3
2002-11-26 09:11:20 51°20.437 2°43.433 288.7 14.4 282.8 26.1
2002-11-26 09:11:26 51°20.443 2°43.395 288.8 14.4 282.7 25.6
2002-11-26 09:11:31 51°20.447 2°43.364 288.7 14.4 282.6 25.4
2002-11-26 09:11:36 51°20.452 2°43.333 288.7 14.3 282.6 25.2
2002-11-26 09:11:41 51°20.456 2°43.302 288.5 14.3 282 25
2002-11-26 09:11:46 51°20.46 2°43.271 288.7 14.3 282.7 25.1
2002-11-26 09:11:51 51°20.464 2°43.24 288.7 14.4 282.4 24.9
2002-11-26 09:11:56 51°20.469 2°43.209 289.2 14.4 283.3 24.5
2002-11-26 09:12:00 51°20.472 2°43.184 288.8 14.4 282.6 24.1
2002-11-26 09:12:06 51°20.478 2°43.147 289.3 14.4 283 24.4
2002-11-26 09:12:11 51°20.483 2°43.115 289 14.4 282.9 24.5
2002-11-26 09:12:16 51°20.487 2°43.084 288.7 14.4 282.9 24.2
2002-11-26 09:12:20 51°20.491 2°43.059 288.7 14.4 282.9 24
2002-11-26 09:12:26 51°20.496 2°43.022 288.5 14.4 282.6 24.1
2002-11-26 09:12:31 51°20.5 2°42.991 288.8 14.4 282.8 22.8
2002-11-26 09:12:36 51°20.505 2°42.96 289 14.4 282.8 23.4
2002-11-26 09:12:41 51°20.509 2°42.929 289.2 14.4 283 22.5
2002-11-26 09:12:46 51°20.513 2°42.898 288.5 14.4 282.6 21.9
2002-11-26 09:12:51 51°20.518 2°42.867 289.2 14.4 283.3 21.9
2002-11-26 09:12:56 51°20.522 2°42.835 288.3 14.4 282.4 18.8
2002-11-26 09:13:00 51°20.526 2°42.81 288.7 14.4 282.7 21.1
2002-11-26 09:13:06 51°20.531 2°42.773 289.3 14.4 283.1 22
2002-11-26 09:13:11 51°20.536 2°42.742 289.2 14.4 283.5 22
2002-11-26 09:13:16 51°20.541 2°42.71 289 14.5 282.9 21.8
2002-11-26 09:13:20 51°20.544 2°42.685 289 14.5 283.2 21.4
2002-11-26 09:13:26 51°20.549 2°42.648 288.7 14.5 282.8 18.1
2002-11-26 09:13:31 51°20.554 2°42.616 289.2 14.5 283 19.9
2002-11-26 09:13:36 51°20.558 2°42.585 289.2 14.5 283.4 20.8
2002-11-26 09:13:40 51°20.562 2°42.56 288.7 14.5 283.1 20.8
2002-11-26 09:13:46 51°20.568 2°42.523 289.3 14.5 283.2 20.8
2002-11-26 09:13:51 51°20.572 2°42.492 289.2 14.5 283.1 17.1
2002-11-26 09:13:56 51°20.577 2°42.46 289 14.5 282.9 19.1
2002-11-26 09:14:00 51°20.581 2°42.435 289 14.5 283.2 20.1
2002-11-26 09:14:06 51°20.586 2°42.398 289.2 14.5 283 19.2
2002-11-26 09:14:11 51°20.591 2°42.366 288.7 14.5 283 18
2002-11-26 09:14:16 51°20.595 2°42.335 288.7 14.6 282.8 19
2002-11-26 09:14:20 51°20.599 2°42.31 288.7 14.6 282.9 17.9
2002-11-26 09:14:26 51°20.604 2°42.272 289 14.6 283.2 17.4
2002-11-26 09:14:31 51°20.609 2°42.24 289.2 14.6 283.7 17.9
2002-11-26 09:14:36 51°20.613 2°42.209 288.8 14.6 283.1 18.5
2002-11-26 09:14:40 51°20.618 2°42.184 289 14.6 283.5 16.7
2002-11-26 09:14:46 51°20.623 2°42.146 288.5 14.6 282.5 18.1
2002-11-26 09:14:51 51°20.628 2°42.114 289.2 14.6 283.1 17.9
2002-11-26 09:14:56 51°20.632 2°42.082 288 14.6 282.7 17.4
2002-11-26 09:15:00 51°20.636 2°42.057 289 14.6 283.3 18.9
2002-11-26 09:15:06 51°20.641 2°42.02 288.8 14.6 283.2 19.3
2002-11-26 09:15:11 51°20.646 2°41.988 288.8 14.6 283.3 19.1
2002-11-26 09:15:16 51°20.651 2°41.956 289.2 14.7 283.5 18.5
2002-11-26 09:15:20 51°20.654 2°41.931 289 14.7 283.3 16.6
2002-11-26 09:15:26 51°20.66 2°41.893 289 14.6 283.4 17.4
2002-11-26 09:15:31 51°20.664 2°41.862 288.3 14.5 282.9 18.3
2002-11-26 09:15:36 51°20.669 2°41.831 289 14.6 283 19.4
2002-11-26 09:15:41 51°20.674 2°41.799 289.2 14.6 283.2 20.5
2002-11-26 09:15:46 51°20.678 2°41.767 288.8 14.6 283.2 21.5
2002-11-26 09:15:51 51°20.683 2°41.735 289.2 14.7 283.3 21.5
2002-11-26 09:15:56 51°20.688 2°41.704 289.2 14.7 283.6 21.9
2002-11-26 09:16:00 51°20.692 2°41.679 289 14.6 283.2 22
2002-11-26 09:16:06 51°20.698 2°41.641 289.2 14.6 283.7 22.2
2002-11-26 09:16:11 51°20.702 2°41.61 289 14.6 283.2 21.8
2002-11-26 09:16:16 51°20.707 2°41.579 289.5 14.6 283.8 20.2
2002-11-26 09:16:21 51°20.711 2°41.547 288.8 14.5 283.2 21.5
2002-11-26 09:16:26 51°20.716 2°41.516 288.2 14.5 282.7 23.4
2002-11-26 09:16:31 51°20.72 2°41.485 288.7 14.5 282.8 23.8
2002-11-26 09:16:36 51°20.724 2°41.454 288.3 14.5 282.7 24.6
2002-11-26 09:16:41 51°20.729 2°41.422 288.7 14.5 282.9 25.2
2002-11-26 09:16:46 51°20.733 2°41.39 289 14.6 283 25.6
2002-11-26 09:16:51 51°20.738 2°41.359 289.5 14.6 283.7 25.7
2002-11-26 09:16:56 51°20.742 2°41.328 288.8 14.6 283.2 26.2
2002-11-26 09:17:00 51°20.747 2°41.302 289.7 14.5 284.1 26.1
2002-11-26 09:17:06 51°20.752 2°41.265 289.7 14.5 284 26
2002-11-26 09:17:11 51°20.757 2°41.233 289.3 14.5 284 26.1
2002-11-26 09:17:16 51°20.762 2°41.202 289 14.5 283.3 25.8
2002-11-26 09:17:21 51°20.766 2°41.172 289.2 14.5 283.5 25.9
2002-11-26 09:17:26 51°20.771 2°41.141 288.8 14.4 283.1 25.9
2002-11-26 09:17:31 51°20.775 2°41.11 288.8 14.5 283.3 25.9
2002-11-26 09:17:36 51°20.78 2°41.079 288.8 14.5 283.1 25.9
2002-11-26 09:17:41 51°20.784 2°41.047 288.5 14.5 282.7 26.1
2002-11-26 09:17:46 51°20.789 2°41.015 288.7 14.5 282.9 26
2002-11-26 09:17:51 51°20.793 2°40.984 288.8 14.5 283 25.9
2002-11-26 09:17:56 51°20.798 2°40.953 289 14.5 283.3 25.8
2002-11-26 09:18:00 51°20.802 2°40.928 289 14.5 283.5 25.9
2002-11-26 09:18:06 51°20.807 2°40.891 289.3 14.5 283.6 25.8
2002-11-26 09:18:11 51°20.812 2°40.86 289.2 14.5 283.4 25.8
2002-11-26 09:18:16 51°20.817 2°40.829 289.3 14.5 283.5 25.9
2002-11-26 09:18:21 51°20.822 2°40.798 289.5 14.5 283.7 25.9
2002-11-26 09:18:26 51°20.826 2°40.767 289.2 14.5 283.8 26.1
2002-11-26 09:18:31 51°20.831 2°40.736 289.2 14.5 283.6 26.1
2002-11-26 09:18:36 51°20.835 2°40.704 289.2 14.5 283.3 25.9
2002-11-26 09:18:41 51°20.84 2°40.673 288.5 14.5 283 26
2002-11-26 09:18:46 51°20.844 2°40.641 288.8 14.5 283.1 25.6
2002-11-26 09:18:51 51°20.849 2°40.61 288.5 14.5 283 23.8
2002-11-26 09:18:56 51°20.854 2°40.579 289.7 14.5 283.6 23.8
2002-11-26 09:19:00 51°20.857 2°40.554 289.5 14.5 283.8 24.5
2002-11-26 09:19:06 51°20.864 2°40.517 289.5 14.5 284 24.8
2002-11-26 09:19:11 51°20.868 2°40.485 289.3 14.5 283.6 25.1
2002-11-26 09:19:16 51°20.873 2°40.454 289.3 14.5 284.1 25.4
2002-11-26 09:19:21 51°20.878 2°40.422 288.7 14.5 283.7 25.3
2002-11-26 09:19:26 51°20.883 2°40.391 289.2 14.5 283.9 25.6
2002-11-26 09:19:31 51°20.887 2°40.36 288.7 14.5 283.2 25.5
2002-11-26 09:19:36 51°20.892 2°40.329 289 14.5 283.2 25.4
2002-11-26 09:19:41 51°20.896 2°40.298 289.2 14.5 283.5 25.3
2002-11-26 09:19:46 51°20.901 2°40.266 288.8 14.4 283.4 24
2002-11-26 09:19:51 51°20.906 2°40.235 288.7 14.5 283.5 23.9
2002-11-26 09:19:56 51°20.911 2°40.204 289.2 14.5 283.5 24
2002-11-26 09:20:01 51°20.916 2°40.173 289.3 14.4 284.1 24.4
2002-11-26 09:20:06 51°20.92 2°40.142 288.8 14.4 284 24.4
2002-11-26 09:20:11 51°20.925 2°40.111 288.7 14.5 283.6 24.3
2002-11-26 09:20:16 51°20.93 2°40.08 289.3 14.5 284 24.5
2002-11-26 09:20:20 51°20.934 2°40.055 288.8 14.4 283.7 24.3
2002-11-26 09:20:26 51°20.94 2°40.018 289.2 14.4 283.6 24.6
2002-11-26 09:20:31 51°20.945 2°39.987 288.8 14.4 284.6 24.4
2002-11-26 09:20:36 51°20.949 2°39.955 288.8 14.4 283.4 24.4
2002-11-26 09:20:40 51°20.954 2°39.931 289.8 14.4 285 24.2
2002-11-26 09:20:46 51°20.959 2°39.894 288.7 14.4 283.8 24
2002-11-26 09:20:51 51°20.966 2°39.863 290.8 14.4 285.7 22.9
2002-11-26 09:20:56 51°20.97 2°39.832 290.7 14.4 285.4 23.3
2002-11-26 09:21:00 51°20.975 2°39.808 291.7 14.4 286.6 23.6
2002-11-26 09:21:06 51°20.982 2°39.771 292.3 14.4 286.9 24.3
2002-11-26 09:21:11 51°20.988 2°39.742 293 14.4 287.7 24.5
2002-11-26 09:21:16 51°20.994 2°39.711 293.2 14.4 287.5 24.5
2002-11-26 09:21:20 51°20.999 2°39.687 293.3 14.4 287.7 24.4
2002-11-26 09:21:26 51°21.006 2°39.65 293 14.4 287.4 24.6
2002-11-26 09:21:31 51°21.012 2°39.619 293.2 14.4 287.4 24.2
2002-11-26 09:21:36 51°21.018 2°39.589 293.5 14.4 287.4 24.2
2002-11-26 09:21:40 51°21.023 2°39.565 293 14.4 287.4 24.3
2002-11-26 09:21:46 51°21.03 2°39.528 294 14.4 287.7 24.4
2002-11-26 09:21:51 51°21.037 2°39.498 295.3 14.4 289 24.5
2002-11-26 09:21:56 51°21.044 2°39.468 296.2 14.4 289.6 24.2
2002-11-26 09:22:00 51°21.05 2°39.444 297.2 14.4 290.6 24.7
2002-11-26 09:22:06 51°21.058 2°39.408 297.5 14.4 290.9 24.5
2002-11-26 09:22:11 51°21.065 2°39.379 297.5 14.4 291.3 24.6
2002-11-26 09:22:16 51°21.073 2°39.349 297.8 14.4 291.9 24.7
2002-11-26 09:22:20 51°21.079 2°39.326 298.3 14.4 292.5 24.5
2002-11-26 09:22:26 51°21.088 2°39.29 298.5 14.5 292.2 23.8
2002-11-26 09:22:31 51°21.096 2°39.261 298.7 14.4 292.4 23.2
2002-11-26 09:22:36 51°21.103 2°39.231 298.3 14.4 292.3 24.7
2002-11-26 09:22:40 51°21.11 2°39.207 298.8 14.5 293 25
2002-11-26 09:22:46 51°21.12 2°39.172 299.5 14.4 293.3 24.8
2002-11-26 09:22:51 51°21.129 2°39.144 303.3 14.4 296.1 24.7
2002-11-26 09:22:56 51°21.139 2°39.116 305.8 14.4 298.4 24.3
2002-11-26 09:23:00 51°21.147 2°39.094 307.8 14.4 300.6 24.5
2002-11-26 09:23:06 51°21.16 2°39.062 309.3 14.4 302.2 23.5
2002-11-26 09:23:11 51°21.172 2°39.036 310.5 14.4 304 23.5
2002-11-26 09:23:16 51°21.183 2°39.011 313 14.4 305.1 24.1
2002-11-26 09:23:20 51°21.193 2°38.992 316.3 14.3 308.7 24.5
2002-11-26 09:23:26 51°21.209 2°38.963 318.7 14.3 310.5 24.5
2002-11-26 09:23:31 51°21.223 2°38.94 320.3 14.3 312.8 24.6
2002-11-26 09:23:36 51°21.237 2°38.918 321.7 14.3 313.8 24.7
2002-11-26 09:23:40 51°21.249 2°38.9 323 14.4 315.6 23.9
2002-11-26 09:23:46 51°21.266 2°38.874 325 14.3 317.3 23.9
2002-11-26 09:23:51 51°21.282 2°38.855 327.5 14.3 319.5 23.5
2002-11-26 09:23:56 51°21.297 2°38.835 329.7 14.3 321.4 24.5
2002-11-26 09:24:00 51°21.31 2°38.82 331.2 14.2 322.8 24.2
2002-11-26 09:24:06 51°21.329 2°38.799 332.2 14.2 324.6 25.1
2002-11-26 09:24:11 51°21.346 2°38.781 333.3 14.2 325.4 25
2002-11-26 09:24:16 51°21.363 2°38.765 336.5 14.2 327.6 25.1
2002-11-26 09:24:21 51°21.38 2°38.751 339.3 14.2 331 25.1
2002-11-26 09:24:26 51°21.398 2°38.738 341.7 14.1 333.5 24.8
2002-11-26 09:24:31 51°21.416 2°38.724 343.2 14.1 335.1 25
2002-11-26 09:24:36 51°21.434 2°38.712 344 14.1 335.8 25.7
2002-11-26 09:24:40 51°21.448 2°38.702 344.3 14.1 336.3 25.8
2002-11-26 09:24:46 51°21.47 2°38.687 345 14 336.6 26.1
2002-11-26 09:24:51 51°21.488 2°38.675 344.8 14 336.6 26.2
2002-11-26 09:24:56 51°21.506 2°38.663 344.8 14.1 337 25.9
2002-11-26 09:25:00 51°21.52 2°38.652 345 14.1 336.7 26.1
2002-11-26 09:25:06 51°21.542 2°38.638 344.7 14.1 336.9 26
2002-11-26 09:25:11 51°21.56 2°38.625 344.5 14.1 336.1 25.9
2002-11-26 09:25:16 51°21.578 2°38.613 345.8 14.1 336.8 26.2
2002-11-26 09:25:20 51°21.593 2°38.605 347.8 14.1 338.2 26.3
2002-11-26 09:25:26 51°21.615 2°38.593 349.3 14.1 341.2 26.1
2002-11-26 09:25:31 51°21.633 2°38.584 350.3 14.1 342.2 26.2
2002-11-26 09:25:36 51°21.652 2°38.575 351.2 14.1 343 26.5
2002-11-26 09:25:40 51°21.667 2°38.568 352 14.1 343.5 26.4
2002-11-26 09:25:46 51°21.69 2°38.558 352.3 14 344.2 26.5
2002-11-26 09:25:51 51°21.708 2°38.549 352 14 343.7 26.6
2002-11-26 09:25:56 51°21.727 2°38.541 352 14 344.1 26.6
2002-11-26 09:26:01 51°21.746 2°38.532 351.7 14.1 343.8 26.8
2002-11-26 09:26:06 51°21.765 2°38.523 351.8 14.1 343.9 27
2002-11-26 09:26:11 51°21.783 2°38.514 351.8 14.1 343.7 27
2002-11-26 09:26:16 51°21.802 2°38.505 351.8 14.1 343.8 27
2002-11-26 09:26:20 51°21.817 2°38.499 351.7 14 343.8 27.1
2002-11-26 09:26:26 51°21.84 2°38.487 351.5 14 343.8 27.2
2002-11-26 09:26:31 51°21.858 2°38.478 351.3 14.1 343 27.3
2002-11-26 09:26:36 51°21.877 2°38.469 351.2 14.1 343.1 27.1
2002-11-26 09:26:40 51°21.892 2°38.462 351.2 14.1 342.9 27.2
2002-11-26 09:26:46 51°21.915 2°38.451 351.5 14.1 343.1 28.1
2002-11-26 09:26:51 51°21.933 2°38.441 350.8 14.1 342.7 27.9
2002-11-26 09:26:56 51°21.952 2°38.432 350.8 14.1 342.7 28.1
2002-11-26 09:27:01 51°21.97 2°38.423 351 14.1 342.6 28.3
2002-11-26 09:27:06 51°21.989 2°38.413 350.7 14.1 342.6 28
2002-11-26 09:27:11 51°22.008 2°38.404 350.5 14.1 342.3 28.6
2002-11-26 09:27:16 51°22.026 2°38.395 350.5 14.1 342.2 28.8
2002-11-26 09:27:20 51°22.041 2°38.387 350.2 14.1 342.2 29.3
2002-11-26 09:27:26 51°22.063 2°38.375 350.2 14.1 341.8 29.4
2002-11-26 09:27:31 51°22.081 2°38.366 349.5 14 341.8 29.3
2002-11-26 09:27:36 51°22.1 2°38.356 350.2 14 341.7 28.7
2002-11-26 09:27:41 51°22.118 2°38.347 350.3 14 342 29.1
2002-11-26 09:27:46 51°22.137 2°38.337 350.3 14 342.1 29.5
2002-11-26 09:27:51 51°22.155 2°38.328 350.5 14 342.2 29.5
2002-11-26 09:27:56 51°22.173 2°38.317 350 14 341.6 29.4
2002-11-26 09:28:00 51°22.188 2°38.31 350 14 341.9 29.2
2002-11-26 09:28:06 51°22.21 2°38.298 350 14 341.4 28.9
2002-11-26 09:28:11 51°22.229 2°38.288 349.8 14 341.3 29
2002-11-26 09:28:16 51°22.247 2°38.278 349.5 14 341.3 28.9
2002-11-26 09:28:20 51°22.262 2°38.27 349.8 14 341.5 29
2002-11-26 09:28:26 51°22.284 2°38.258 350.2 14.1 341.5 28.9
2002-11-26 09:28:31 51°22.303 2°38.248 349.8 14.1 341.4 28.6
2002-11-26 09:28:36 51°22.322 2°38.238 350 14.1 341.3 28.7
2002-11-26 09:28:40 51°22.336 2°38.23 349.7 14.1 341.3 28.7
2002-11-26 09:28:46 51°22.359 2°38.218 349.7 14.1 341.3 28.5
2002-11-26 09:28:51 51°22.377 2°38.207 349.7 14.1 341.4 28.6
2002-11-26 09:28:56 51°22.396 2°38.197 350 14.1 341.5 28.1
2002-11-26 09:29:00 51°22.411 2°38.19 350 14.1 341.8 28.6
2002-11-26 09:29:06 51°22.433 2°38.178 349.8 14.1 341.8 28.9
2002-11-26 09:29:11 51°22.452 2°38.168 349.5 14.1 341.2 28.9
2002-11-26 09:29:16 51°22.47 2°38.158 349.5 14.1 341.2 29.1
2002-11-26 09:29:20 51°22.485 2°38.15 349.5 14 341.2 29.5
2002-11-26 09:29:26 51°22.507 2°38.138 349.5 14 341.2 29.3
2002-11-26 09:29:31 51°22.525 2°38.128 349.5 14.1 341.1 29.2
2002-11-26 09:29:36 51°22.544 2°38.118 349 14.1 340.9 29.5
2002-11-26 09:29:41 51°22.563 2°38.108 349.5 14.4 340.8 29.2
2002-11-26 09:29:46 51°22.581 2°38.098 349.7 14.2 341.3 29.3
2002-11-26 09:29:51 51°22.599 2°38.088 349.8 14.1 341.3 28.9
2002-11-26 09:29:56 51°22.617 2°38.079 349.2 14 341.6 29.1
2002-11-26 09:30:00 51°22.632 2°38.07 349.2 14 341.1 28.9
2002-11-26 09:30:06 51°22.654 2°38.059 349.5 14.1 341.6 28
2002-11-26 09:30:11 51°22.673 2°38.048 349.3 14 341.1 29.2
2002-11-26 09:30:16 51°22.691 2°38.039 349.7 14 341.6 29
2002-11-26 09:30:20 51°22.706 2°38.031 349.5 14.1 341.6 29
2002-11-26 09:30:26 51°22.729 2°38.019 349.2 14.1 341.7 28.9
2002-11-26 09:30:31 51°22.747 2°38.008 349 14.2 341.2 28.9
2002-11-26 09:30:36 51°22.766 2°37.999 349.2 14.2 341.2 28.9
2002-11-26 09:30:40 51°22.781 2°37.99 349.2 14.2 341 28.9
2002-11-26 09:30:46 51°22.803 2°37.978 349.2 14.1 341.1 28.7
2002-11-26 09:30:51 51°22.821 2°37.968 349.5 14.1 341.2 28.9
2002-11-26 09:30:56 51°22.84 2°37.958 349.2 14.1 341.3 28.4
2002-11-26 09:31:01 51°22.859 2°37.948 348.7 14.2 340.8 29.4
2002-11-26 09:31:06 51°22.877 2°37.938 349 14.2 341.2 29.7
2002-11-26 09:31:11 51°22.896 2°37.928 349.2 14.2 340.8 29.7
2002-11-26 09:31:16 51°22.914 2°37.917 348.8 14.2 340.8 29.4
2002-11-26 09:31:20 51°22.929 2°37.908 348.2 14.2 340.3 29.2
2002-11-26 09:31:26 51°22.951 2°37.896 348.8 14.1 340.7 26.8
2002-11-26 09:31:31 51°22.97 2°37.886 348.8 14.1 340.6 28.5
2002-11-26 09:31:36 51°22.988 2°37.876 348.8 14.1 340.7 28.2
2002-11-26 09:31:40 51°23.003 2°37.867 348.8 14.1 340.7 27.2
2002-11-26 09:31:46 51°23.025 2°37.855 349 14.1 340.8 25.9
2002-11-26 09:31:51 51°23.043 2°37.845 349 14.1 340.6 25
2002-11-26 09:31:56 51°23.062 2°37.835 349.2 14.1 341.1 27.5
2002-11-26 09:32:00 51°23.076 2°37.827 349.3 14 341 28.3
2002-11-26 09:32:06 51°23.099 2°37.815 349.7 14 341.7 27.8
2002-11-26 09:32:11 51°23.117 2°37.805 349.7 14 341.3 26.1
2002-11-26 09:32:16 51°23.136 2°37.795 349 14.1 341.5 24.8
2002-11-26 09:32:20 51°23.15 2°37.786 348.2 14.1 340.7 27.1
2002-11-26 09:32:26 51°23.172 2°37.774 348.2 14.1 340.2 27.4
2002-11-26 09:32:31 51°23.191 2°37.764 347.8 14.1 340 27
2002-11-26 09:32:36 51°23.209 2°37.752 347 14.1 340.1 26.7
2002-11-26 09:32:41 51°23.228 2°37.741 346.8 14.1 339.3 26.3
2002-11-26 09:32:46 51°23.246 2°37.73 347 14.2 339.5 25.5
2002-11-26 09:32:51 51°23.264 2°37.719 346.7 14.2 339.1 23.1
2002-11-26 09:32:56 51°23.283 2°37.709 346.8 14.1 339.7 25.5
2002-11-26 09:33:00 51°23.297 2°37.699 347.2 14.1 339.4 25.6
2002-11-26 09:33:06 51°23.319 2°37.687 347 14 339.8 24.7
2002-11-26 09:33:11 51°23.337 2°37.675 346.8 14.1 339.2 22.7
2002-11-26 09:33:16 51°23.356 2°37.665 347.2 14.1 339.9 24.3
2002-11-26 09:33:20 51°23.37 2°37.656 347.2 14.1 339.5 25
2002-11-26 09:33:26 51°23.392 2°37.644 347.3 14.1 340 24.5
2002-11-26 09:33:31 51°23.41 2°37.633 347.3 14 339.8 24
2002-11-26 09:33:36 51°23.428 2°37.622 347.2 14 339.5 23.7
2002-11-26 09:33:40 51°23.443 2°37.613 347 14 339.8 23.7
2002-11-26 09:33:46 51°23.465 2°37.6 346.7 14 339.4 23.5
2002-11-26 09:33:51 51°23.483 2°37.59 347.3 14.1 340 22.6
2002-11-26 09:33:56 51°23.501 2°37.578 346.8 14.1 339.4 21.8
2002-11-26 09:34:00 51°23.516 2°37.57 346.8 14 339.6 23.7
2002-11-26 09:34:06 51°23.538 2°37.557 346.7 14 339.4 24.3
2002-11-26 09:34:11 51°23.556 2°37.546 346.7 14 339.4 24.3
2002-11-26 09:34:16 51°23.574 2°37.536 347.2 14.1 339.7 24.2
2002-11-26 09:34:20 51°23.589 2°37.528 346.8 14.1 340.1 22.7
2002-11-26 09:34:26 51°23.611 2°37.515 347.3 14.1 340.2 21.7
2002-11-26 09:34:31 51°23.629 2°37.504 347.3 14.1 340 23.3
2002-11-26 09:34:36 51°23.647 2°37.493 346.2 14.1 339.4 23.8
2002-11-26 09:34:40 51°23.662 2°37.484 346.7 14.1 339.8 21.1
2002-11-26 09:34:46 51°23.684 2°37.471 346.7 14.1 339.7 22.1
2002-11-26 09:34:51 51°23.703 2°37.46 346.8 14.1 339.7 22.5
2002-11-26 09:34:56 51°23.721 2°37.449 347.2 14.1 339.7 23.2
2002-11-26 09:35:01 51°23.739 2°37.438 347.2 14.1 339.6 20.4
2002-11-26 09:35:06 51°23.758 2°37.427 346.3 14.1 338.9 20
2002-11-26 09:35:11 51°23.776 2°37.414 344.8 14.1 337.9 21.2
2002-11-26 09:35:16 51°23.794 2°37.402 343.7 14.1 337.4 22
2002-11-26 09:35:20 51°23.808 2°37.392 343.5 14.1 336.3 22.7
2002-11-26 09:35:26 51°23.829 2°37.377 343.2 14.1 336.2 22.8
2002-11-26 09:35:31 51°23.847 2°37.365 343.2 14.2 336.4 23.6
2002-11-26 09:35:36 51°23.865 2°37.351 342.5 14.2 336 23.8
2002-11-26 09:35:40 51°23.88 2°37.341 342.3 14.1 335.4 24
2002-11-26 09:35:46 51°23.901 2°37.325 341.7 14.1 334.9 24.1
2002-11-26 09:35:51 51°23.919 2°37.31 340.2 14.2 333.7 24.1
2002-11-26 09:35:56 51°23.936 2°37.296 339 14.2 332.9 24.1
2002-11-26 09:36:01 51°23.953 2°37.281 338.3 14.1 331.8 24.6
2002-11-26 09:36:06 51°23.97 2°37.266 338 14.2 331.4 24.7
2002-11-26 09:36:11 51°23.988 2°37.251 337.8 14.2 331.3 25.1
2002-11-26 09:36:16 51°24.005 2°37.235 337.3 14.2 330.9 25.6
2002-11-26 09:36:20 51°24.018 2°37.223 337 14.2 330.6 26.2
2002-11-26 09:36:26 51°24.039 2°37.204 337.5 14.2 330.7 26.7
2002-11-26 09:36:31 51°24.056 2°37.188 337.2 14.2 330.7 27.1
2002-11-26 09:36:36 51°24.073 2°37.173 337.5 14.2 330.7 27.9
2002-11-26 09:36:40 51°24.087 2°37.161 337.5 14.3 331 28.3
2002-11-26 09:36:46 51°24.108 2°37.142 337.2 14.3 330.6 28.9
2002-11-26 09:36:51 51°24.125 2°37.127 337.2 14.3 330.6 29.3
2002-11-26 09:36:56 51°24.142 2°37.111 337 14.2 330.4 29.7
2002-11-26 09:37:01 51°24.159 2°37.096 337.3 14.3 330.8 29.8
2002-11-26 09:37:06 51°24.176 2°37.08 337 14.3 330.1 30
2002-11-26 09:37:11 51°24.193 2°37.065 337.2 14.2 330.1 30.1
2002-11-26 09:37:16 51°24.211 2°37.049 337.3 14.2 330.3 30
2002-11-26 09:37:20 51°24.225 2°37.037 337.2 14.2 330.8 30.1
2002-11-26 09:37:26 51°24.246 2°37.018 337.5 14.3 330.6 30.2
2002-11-26 09:37:31 51°24.263 2°37.003 337.2 14.2 330.8 30.8
2002-11-26 09:37:36 51°24.28 2°36.988 337.7 14.2 330.4 31.1
2002-11-26 09:37:40 51°24.294 2°36.976 337.7 14.2 330.9 31
2002-11-26 09:37:46 51°24.314 2°36.957 337.2 14.2 330.3 30.9
2002-11-26 09:37:51 51°24.331 2°36.941 337.2 14.2 330.7 30.9
2002-11-26 09:37:56 51°24.348 2°36.926 337 14.2 330.3 30.7
2002-11-26 09:38:01 51°24.365 2°36.911 337.3 14.2 330.7 30.4
2002-11-26 09:38:06 51°24.382 2°36.894 336.8 14.2 329.9 30.5
2002-11-26 09:38:11 51°24.399 2°36.878 336.8 14.2 329.3 30.4
2002-11-26 09:38:16 51°24.416 2°36.862 337 14.2 329.2 30.2
2002-11-26 09:38:20 51°24.429 2°36.85 337.5 14.2 329.6 30.2
2002-11-26 09:38:26 51°24.45 2°36.831 337.8 14.1 329.8 30
2002-11-26 09:38:31 51°24.467 2°36.815 337.7 14.1 330 30.3
2002-11-26 09:38:36 51°24.484 2°36.799 338.3 14.2 330 30.5
2002-11-26 09:38:40 51°24.498 2°36.787 339.3 14.2 330.5 30.8
2002-11-26 09:38:46 51°24.519 2°36.77 340.2 14.2 331.9 31
2002-11-26 09:38:51 51°24.536 2°36.755 340.5 14.2 332.5 31.1
2002-11-26 09:38:56 51°24.554 2°36.741 341.3 14.2 333.2 30.5
2002-11-26 09:39:01 51°24.572 2°36.727 341.2 14.2 333.3 30.3
2002-11-26 09:39:06 51°24.589 2°36.713 341.3 14.1 333.4 30.3
2002-11-26 09:39:11 51°24.606 2°36.699 341.2 14.1 333.2 30.3
2002-11-26 09:39:16 51°24.624 2°36.685 341.5 14.1 333.4 30.5
2002-11-26 09:39:20 51°24.638 2°36.673 341.5 14.2 333.4 30.2
2002-11-26 09:39:26 51°24.659 2°36.656 341.2 14.2 333.4 30.1
2002-11-26 09:39:31 51°24.677 2°36.641 340.7 14.2 333.1 29.9
2002-11-26 09:39:36 51°24.694 2°36.627 340.8 14.2 333.2 30.1
2002-11-26 09:39:40 51°24.708 2°36.616 341 14.2 333.3 30.2
2002-11-26 09:39:46 51°24.729 2°36.599 341.2 14.2 333.4 30.8
2002-11-26 09:39:51 51°24.747 2°36.586 341.5 14.1 333.5 30.7
2002-11-26 09:39:56 51°24.764 2°36.573 341.3 14.1 334.3 30.9
2002-11-26 09:40:01 51°24.782 2°36.559 342 14.1 334.4 31
2002-11-26 09:40:06 51°24.801 2°36.547 344.5 14.1 335.1 31.7
2002-11-26 09:40:11 51°24.818 2°36.535 345.7 14 337.4 31.9
2002-11-26 09:40:16 51°24.836 2°36.525 347.2 14 338.8 31.1
2002-11-26 09:40:20 51°24.851 2°36.516 347.5 14.1 339.7 31.8
2002-11-26 09:40:26 51°24.873 2°36.504 348.3 14 340.5 31.6
2002-11-26 09:40:31 51°24.891 2°36.494 348.7 14 340.3 31.7
2002-11-26 09:40:36 51°24.91 2°36.484 348.8 14 341 31.9
2002-11-26 09:40:41 51°24.928 2°36.473 348.8 14.1 340.7 32.1
2002-11-26 09:40:46 51°24.947 2°36.464 349.5 14 341.7 32.4
2002-11-26 09:40:51 51°24.965 2°36.453 348.7 14 341 32.4
2002-11-26 09:40:56 51°24.984 2°36.443 348.7 14 341.3 32.9
2002-11-26 09:41:00 51°24.999 2°36.435 348.5 14 340.9 32.7
2002-11-26 09:41:06 51°25.021 2°36.423 348.8 14 341 32.7
2002-11-26 09:41:11 51°25.039 2°36.412 348.3 14 340.7 32.5
2002-11-26 09:41:16 51°25.058 2°36.403 348.8 14 340.9 32.7
2002-11-26 09:41:21 51°25.076 2°36.392 348.3 14 340.4 32.7
2002-11-26 09:41:26 51°25.094 2°36.382 348.3 14 340.5 32.7
2002-11-26 09:41:31 51°25.113 2°36.371 347.8 14.1 339.9 32.5
2002-11-26 09:41:36 51°25.131 2°36.36 347.5 14 340.2 32.8
2002-11-26 09:41:41 51°25.149 2°36.349 347.8 14 339.6 33.2
2002-11-26 09:41:46 51°25.167 2°36.339 348 14 339.8 33.5
2002-11-26 09:41:51 51°25.185 2°36.329 348.3 14 340.3 33.7
2002-11-26 09:41:56 51°25.203 2°36.318 348.5 13.9 340.3 33.4
2002-11-26 09:42:00 51°25.218 2°36.31 348 13.9 340.2 32.9
2002-11-26 09:42:06 51°25.24 2°36.298 348 13.9 340.2 32.8
2002-11-26 09:42:11 51°25.258 2°36.287 348 14 339.9 32.3
2002-11-26 09:42:16 51°25.277 2°36.278 348.5 14 340.4 32.3
2002-11-26 09:42:20 51°25.291 2°36.269 348.5 14 340.7 32.4
2002-11-26 09:42:26 51°25.313 2°36.257 348.7 14 341.2 32.6
2002-11-26 09:42:31 51°25.332 2°36.246 348.7 14.1 340.8 32.1
2002-11-26 09:42:36 51°25.351 2°36.236 348.7 14 341.1 31.6
2002-11-26 09:42:41 51°25.369 2°36.226 349 14 341.3 31.4
2002-11-26 09:42:46 51°25.387 2°36.216 348.3 14 341 31.9
2002-11-26 09:42:51 51°25.406 2°36.206 348.3 14 340.9 32.2
2002-11-26 09:42:56 51°25.424 2°36.196 348.8 14.1 341 31.9
2002-11-26 09:43:00 51°25.439 2°36.188 348.3 14.1 341.3 32.1
2002-11-26 09:43:06 51°25.461 2°36.175 347.8 14 340.6 32.3
2002-11-26 09:43:11 51°25.479 2°36.165 348 14 340.8 32.3
2002-11-26 09:43:16 51°25.498 2°36.155 348.2 14 340.8 32
2002-11-26 09:43:20 51°25.512 2°36.147 348.5 14 341.1 31.3
2002-11-26 09:43:26 51°25.534 2°36.135 348.3 14 340.9 31.5
2002-11-26 09:43:31 51°25.552 2°36.125 348.7 14 341 31.4
2002-11-26 09:43:36 51°25.571 2°36.115 349.2 13.9 341 31.9